Regional Weather Roundup
Issued by NWS

Home | Current Version | Previous Version | Graphics & Text | Print | Product List | Glossary On
Versions: 1 2 3 4 5 6 7 8 9 10 11 12 13 14 15 16 17 18 19 20 21 22 23 24 25 26 27 28 29 30 31 32 33 34 35 36 37 38 39 40 41 42 43 44 45 46 47 48 49 50
000
ASUS43 KBIS 061010
RWRND

NORTH DAKOTA REGIONAL WEATHER ROUNDUP
NATIONAL WEATHER SERVICE BISMARCK ND
400 AM CST FRI MAR 06 2015

NOTE: "FAIR" INDICATES FEW OR NO CLOUDS BELOW 12,000 FEET WITH NO
SIGNIFICANT WEATHER AND/OR OBSTRUCTIONS TO VISIBILITY.


NDZ001>003-009>011-017-061100-
NORTHWEST NORTH DAKOTA

CITY           SKY/WX    TMP DP  RH WIND       PRES   REMARKS
WILLISTON      CLEAR     18  14  84 CALM      30.06S
MINOT          FAIR      21  13  71 W14       30.02R WCI   8
MINOT AFB      CLEAR     17  14  90 W14       30.01S WCI   3
$$

NDZ018>021-031>035-040>046-061100-
SOUTHWEST NORTH DAKOTA

CITY           SKY/WX    TMP DP  RH WIND       PRES   REMARKS
BISMARCK       CLEAR     23  14  68 W5        30.06R WCI  17
DICKINSON      MOCLDY    22  13  68 W6        30.02S WCI  14
GARRISON         N/A     17  12  80 NW12      30.03R WCI   4
HETTINGER ARPT CLEAR     21  13  71 SW3       30.05F
$$

NDZ004>008-012>016-024-026-027-054-061100-
NORTHEAST NORTH DAKOTA

CITY           SKY/WX    TMP DP  RH WIND       PRES   REMARKS
GRAND FORKS    FAIR      12   7  80 W7        29.97R WCI   1
GRND FRKS AFB  CLEAR     17   9  70 NW10      29.96R WCI   5
DEVILS LAKE    CLEAR     12   5  73 NW9       29.98R WCI   0
$$

NDZ022-023-025-028>030-036>039-047>053-061100-
SOUTHEAST NORTH DAKOTA

CITY           SKY/WX    TMP DP  RH WIND       PRES   REMARKS
FARGO          CLEAR     14   7  73 SW7       29.98S WCI   4
JAMESTOWN      CLEAR     18  10  71 W9        29.98R WCI   7
$$




USA.gov is the U.S. government's official web portal to all federal, state and local government web resources and services.